This demonstration page uses our WeatherBlox Daily Observations layout. Learn more.

Left ArrowRight Arrow

Hourly Observations for July 28, 2022

Temp ( °F °C ) Dew Point ( °F °C ) Humidity (%) Winds ( mph kmh ) Pressure ( in mb ) Visibility ( mi km ) Precip ( " mm )
12:53 am 00:53 Clear 89 31.7 68 20 50 50 S 10 17 29.91 1013 10 16 0.00 0.00
1:53 am 01:53 Clear 88 31.1 69 20.6 54 54 S 9 15 29.91 1013 10 16 0.00 0.00
2:53 am 02:53 Clear 87 30.6 69 20.6 55 55 S 13 20 29.91 1013 10 16 0.00 0.00
3:53 am 03:53 Clear 85 29.4 70 21.1 61 61 S 10 17 29.90 1013 10 16 0.00 0.00
4:53 am 04:53 Clear 84 28.9 70 21.1 63 63 S 8 13 29.91 1013 10 16 0.00 0.00
5:53 am 05:53 Mostly Clear 83 28.3 70 21.1 65 65 S 9 15 29.92 1013 10 16 0.00 0.00
6:53 am 06:53 Mostly Sunny 83 28.3 70 21.1 65 65 S 12 19 29.93 1014 10 16 0.00 0.00
7:53 am 07:53 Mostly Sunny 84 28.9 71 21.7 65 65 SSW 8 13 29.95 1014 10 16 0.00 0.00
8:53 am 08:53 Mostly Sunny 86 30 71 21.7 61 61 S 10 17 29.96 1015 10 16 0.00 0.00
9:53 am 09:53 Mostly Sunny 89 31.7 69 20.6 52 52 WSW 12 19 29.96 1015 10 16 0.00 0.00
10:53 am 10:53 Partly Cloudy 91 32.8 69 20.6 49 49 SSW 10 17 29.97 1015 10 16 0.00 0.00
11:53 am 11:53 Partly Cloudy 94 34.4 67 19.4 41 41 SSW 8 13 29.96 1014 10 16 0.00 0.00
12:53 pm 12:53 Mostly Sunny 97 36.1 68 20 39 39 SSE 8 13 29.94 1014 10 16 0.00 0.00
1:53 pm 13:53 Mostly Sunny 99 37.2 66 18.9 34 34 SE 14 22 29.92 1013 10 16 0.00 0.00
2:53 pm 14:53 Partly Cloudy 100 37.8 65 18.3 32 32 SE 8 13 29.90 1012 10 16 0.00 0.00
3:53 pm 15:53 Partly Cloudy 100 37.8 66 18.9 33 33 S 6 9 29.88 1012 10 16 0.00 0.00
4:53 pm 16:53 Partly Cloudy 101 38.3 65 18.3 31 31 S 9 15 29.86 1011 10 16 0.00 0.00
5:53 pm 17:53 Mostly Sunny 101 38.3 63 17.2 29 29 S 9 15 29.85 1011 10 16 0.00 0.00
6:53 pm 18:53 Mostly Sunny 100 37.8 64 17.8 31 31 S 10 17 29.84 1011 10 16 0.00 0.00
7:53 pm 19:53 Mostly Sunny 99 37.2 63 17.2 31 31 S 9 15 29.85 1011 10 16 0.00 0.00
8:53 pm 20:53 Mostly Clear 97 36.1 62 16.7 32 32 SSE 10 17 29.86 1011 10 16 0.00 0.00
9:53 pm 21:53 Mostly Clear 96 35.6 63 17.2 34 34 SSE 7 11 29.88 1012 10 16 0.00 0.00
10:53 pm 22:53 Mostly Clear 94 34.4 63 17.2 36 36 SSE 6 9 29.89 1012 10 16 0.00 0.00
11:53 pm 23:53 Mostly Clear 91 32.8 65 18.3 42 42 SSE 13 20 29.91 1013 10 16 0.00 0.00

Powered by AerisWeather